User: anonymous   Login
Location: Caltech
(34.1382°N, 118.1253°W)
Time: 05:15:25
(UTC-07:00)
Language:

GPS 2-04 Rocket1 - Orbit

View from above orbital plane
View from above orbital plane
View from above satellite
View from above satellite

Ground track
Ground track

The orbit data is extracted from the following two-line orbital elements,

1 20303U 89085B   16270.14070033  .00005300  00000-0  19416-3 0  9994
2 20303  35.6299 246.8449 0110396 359.3677   0.6896 15.21906138460275
Epoch (UTC): 26 September 2016 03:22:36
Eccentricity: 0.0110396
inclination: 35.6299°
perigee height: 424 km
apogee height: 576 km
right ascension of ascending node: 246.8449°
argument of perigee: 359.3677°
revolutions per day: 15.21906138
mean anomaly at epoch: 0.6896°
orbit number at epoch: 46027

The dashed part of the orbit path shows where the satellite is in the earth's shadow,  

DLR